This is the latest recevied weather packets stored in our database for station/object IA5ITY-13. If no packets are shown the sender has not sent any weather packets the latest 10 day(s).
| Time | Temp. | Humidity | Pressure | Rain* | Wind** | Luminosity | Snow |
|---|---|---|---|---|---|---|---|
| 1777616113 | 17.22° C | 23% | 1022.8 hPa | 0 mm | - | - | - |
| 1777615813 | 17.78° C | 18% | 1022.7 hPa | 0 mm | - | - | - |
| 1777615509 | 17.78° C | 16% | 1022.6 hPa | 0 mm | - | - | - |
| 1777615234 | 17.22° C | 17% | 1022.7 hPa | 0 mm | - | - | - |
| 1777614909 | 17.78° C | 16% | 1022.5 hPa | 0 mm | - | - | - |
| 1777614613 | 17.78° C | 16% | 1022.6 hPa | 0 mm | - | - | - |
| 1777614312 | 17.22° C | 19% | 1022.4 hPa | 0 mm | - | - | - |
| 1777614013 | 17.22° C | 17% | 1022.3 hPa | 0 mm | - | - | - |
| 1777613709 | 17.22° C | 17% | 1022.2 hPa | 0 mm | - | - | - |
| 1777613422 | 16.11° C | 19% | 1022.3 hPa | 0 mm | - | - | - |
| 1777613110 | 15° C | 20% | 1022.1 hPa | 0 mm | - | - | - |
| 1777612813 | 15° C | 20% | 1022.1 hPa | 0 mm | - | - | - |
| 1777612513 | 15° C | 20% | 1022.1 hPa | 0 mm | - | - | - |
| 1777612212 | 15° C | 19% | 1022.1 hPa | 0 mm | - | - | - |
| 1777611909 | 15° C | 19% | 1021.9 hPa | 0 mm | - | - | - |
| 1777611633 | 15° C | 17% | 1021.8 hPa | 0 mm | - | - | - |
| 1777611309 | 15° C | 17% | 1021.8 hPa | 0 mm | - | - | - |
| 1777611012 | 15° C | 17% | 1021.9 hPa | 0 mm | - | - | - |
| 1777610712 | 15° C | 16% | 1021.8 hPa | 0 mm | - | - | - |
| 1777610412 | 13.89° C | 20% | 1021.8 hPa | 0 mm | - | - | - |
| 1777610109 | 13.89° C | 18% | 1021.8 hPa | 0 mm | - | - | - |
| 1777609822 | 15° C | 15% | 1021.6 hPa | 0 mm | - | - | - |
| 1777609510 | 13.89° C | 14% | 1021.7 hPa | 0 mm | - | - | - |
| 1777609213 | 15° C | 13% | 1021.6 hPa | 0 mm | - | - | - |
| 1777608913 | 15° C | 13% | 1021.5 hPa | 0 mm | - | - | - |
* Rain latest hour (hover to see other rain measurements)
** Current wind speed in m/s (hover to see current wind gust speed)